Probability
77 68 68 61 65 74 74 61 61 65 58 52 52 61 55 48 42 52 52 42 45 32 23 23 39 32 29 29 26 26 19 29 16 16 19 19 16 10 3 13 13 3 0
71 68 65 68 58 61 55 55 58 61 48 55 58 58 52 52 52 45 39 39 26 23 16 23 23 16 32 26 16 19 19 19 13 6 6 6 6 6 10 6 0 0 0
68 68 65 61 61 55 55 52 52 48 45 52 55 52 42 45 45 45 32 32 26 23 19 13 19 23 23 19 16 13 10 10 10 6 6 6 3 0 0 0 0 0 0
71 61 68 65 55 52 52 48 55 42 39 45 42 48 39 32 29 29 29 32 29 23 23 19 19 13 16 13 10 10 6 6 6 6 3 3 0 0 0 0 0 0 0
74 65 61 55 55 55 55 48 42 35 35 39 32 35 29 26 29 32 29 29 29 19 16 10 6 3 6 6 3 6 3 6 3 3 0 0 0 0 0 3 0 0 0
74 58 58 52 42 42 35 35 35 35 35 32 29 23 19 16 6 6 29 26 23 23 13 6 3 3 3 0 0 0 0 0 0 0 0 0 0 3 3 0 0 0 0
61 55 48 45 39 39 35 32 32 29 26 26 19 19 19 16 3 0 3 19 23 23 10 6 3 3 3 3 0 0 0 0 0 0 0 3 3 0 0 0 0 0 0
71 52 52 35 32 29 29 29 26 26 23 19 23 23 23 19 3 0 0 6 16 13 10 6 6 3 3 3 3 0 0 0 0 0 0 0 0 0 0 0 0 0 0
55 48 39 39 32 29 29 26 23 23 23 23 23 23 23 16 3 0 0 3 10 3 6 6 6 3 3 0 0 3 0 0 0 0 0 0 0 0 0 0 0 0 0
52 45 35 32 29 29 23 23 26 26 23 23 16 16 13 13 3 0 0 3 3 6 6 6 3 0 3 0 0 3 0 0 0 0 0 0 0 0 0 0 0 0 0
42 32 26 26 26 26 23 23 23 23 16 13 13 13 13 10 3 0 0 0 3 3 3 3 3 0 0 0 0 0 0 0 0 0 0 0 0 0 0 0 0 0 0
29 26 19 19 19 16 16 13 13 13 13 13 10 6 6 0 0 0 0 0 0 0 0 0 0 0 0 0 0 0 0 0 0 0 0 0 0 0 0 0 0 0 0
19 23 19 13 16 10 10 6 6 6 6 10 6 6 0 0 0 0 0 0 0 0 0 0 0 0 0 0 0 0 0 0 0 0 0 0 0 0 0 0 0 0 0
16 16 13 16 10 6 6 3 3 3 3 3 6 3 0 0 0 0 0 0 0 0 0 0 0 0 0 0 0 0 0 0 0 0 0 0 0 0 0 0 0 0 0
16 13 13 10 6 6 0 0 0 0 0 3 3 0 0 0 0 0 0 0 0 0 0 0 0 0 0 0 0 0 0 0 0 0 0 0 0 0 0 0 0 0 0
10 10 10 6 10 0 0 0 0 0 0 0 0 0 0 0 0 0 0 0 0 0 0 0 0 0 0 0 0 0 0 0 0 0 0 0 0 0 0 0 0 0 0
10 10 10 3 3 3 0 0 0 0 0 0 0 0 0 0 0 0 0 0 0 0 0 0 0 0 0 0 0 0 0 0 0 0 0 0 0 0 0 0 0 0 0
6 3 3 3 0 0 0 0 0 0 0 0 0 0 0 0 0 0 0 0 0 0 0 0 0 0 0 0 0 0 0 0 0 0 0 0 0 0 0 0 0 0 0
3 3 3 3 0 0 0 0 0 0 0 0 0 0 0 0 0 0 0 0 0 0 0 0 0 0 0 0 0 0 0 0 0 0 0 0 0 0 0 0 0 0 0
3 3 0 3 0 0 0 0 0 0 0 0 0 0 0 0 0 0 0 0 0 0 0 0 0 0 0 0 0 0 0 0 0 0 0 0 0 0 0 0 0 0 0
3 0 0 0 0 0 0 0 0 0 0 0 0 0 0 0 0 0 0 0 0 0 0 0 0 0 0 0 0 0 0 0 0 0 0 0 0 0 0 0 0 0 0
0 0 0 0 0 0 0 0 0 0 0 0 0 0 0 0 0 0 0 0 0 0 0 0 0 0 0 0 0 0 0 0 0 0 0 0 0 0 0 0 0 0 0
0 0 0 0 0 0 0 0 0 0 0 0 0 0 0 0 0 0 0 0 0 0 0 0 0 0 0 0 0 0 0 0 0 0 0 0 0 0 0 0 0 0 0
0 0 0 0 0 0 0 0 0 0 0 0 0 0 0 0 0 0 0 0 0 0 0 0 0 0 0 0 0 0 0 0 0 0 0 0 0 0 0 0 0 0 0
0 0 0 0 0 0 0 0 0 0 0 0 0 0 0 0 0 0 0 0 0 0 0 0 0 0 0 0 0 0 0 0 0 0 0 0 0 0 0 0 0 0 0
0 0 0 0 0 0 0 0 0 0 0 0 0 0 0 0 0 0 0 0 0 0 0 0 0 0 0 0 0 0 0 0 0 0 0 0 0 0 0 0 0 0 0
Height
5855 5855 5855 5856 5857 5857 5858 5859 5860 5861 5862 5863 5864 5865 5866 5867 5868 5870 5871 5872 5873 5874 5875 5876 5876 5876 5877 5877 5877 5876 5876 5876 5875 5875 5874 5872 5871 5870 5869 5868 5867 5866 5864
5854 5853 5853 5853 5854 5855 5855 5856 5856 5857 5858 5859 5860 5861 5862 5863 5864 5865 5866 5867 5868 5869 5870 5871 5871 5871 5872 5872 5871 5871 5870 5869 5869 5868 5867 5866 5864 5863 5861 5860 5859 5858 5856
5852 5852 5852 5852 5852 5852 5852 5853 5853 5853 5854 5855 5855 5856 5857 5858 5859 5860 5862 5863 5864 5864 5865 5866 5866 5866 5866 5866 5866 5865 5864 5863 5862 5861 5860 5859 5858 5856 5854 5852 5850 5849 5847
5849 5849 5849 5849 5849 5849 5849 5849 5850 5850 5850 5850 5851 5852 5853 5854 5855 5855 5856 5857 5858 5859 5860 5860 5860 5860 5860 5860 5859 5858 5857 5856 5855 5854 5853 5852 5851 5849 5846 5844 5842 5840 5837
5846 5846 5846 5845 5845 5845 5846 5846 5846 5846 5846 5846 5847 5848 5849 5849 5850 5851 5851 5852 5853 5853 5854 5854 5854 5854 5854 5853 5852 5851 5850 5849 5848 5846 5845 5844 5842 5840 5838 5835 5833 5830 5827
5843 5843 5842 5842 5842 5842 5842 5842 5842 5842 5842 5843 5843 5843 5844 5845 5845 5845 5846 5847 5847 5847 5847 5847 5847 5847 5846 5846 5845 5844 5843 5842 5840 5839 5837 5836 5833 5831 5829 5826 5823 5821 5818
5840 5839 5839 5838 5838 5837 5837 5838 5838 5838 5838 5839 5839 5839 5839 5840 5840 5840 5841 5840 5841 5841 5841 5841 5840 5840 5839 5838 5838 5836 5835 5834 5833 5831 5829 5827 5825 5822 5819 5816 5813 5809 5806
5836 5835 5834 5834 5834 5833 5833 5833 5833 5833 5833 5833 5833 5834 5834 5834 5834 5834 5835 5834 5834 5835 5834 5834 5833 5833 5832 5831 5830 5828 5827 5825 5824 5822 5820 5817 5814 5811 5808 5805 5802 5797 5793
5831 5830 5829 5829 5829 5828 5828 5827 5827 5827 5827 5827 5827 5827 5828 5828 5828 5828 5828 5828 5828 5828 5827 5827 5826 5826 5825 5823 5822 5820 5819 5817 5814 5812 5810 5807 5804 5801 5797 5793 5789 5785 5780
5825 5825 5824 5823 5823 5823 5822 5822 5822 5821 5821 5821 5821 5821 5821 5822 5822 5822 5822 5821 5821 5821 5820 5819 5819 5818 5817 5815 5814 5812 5810 5808 5806 5803 5800 5796 5793 5789 5785 5781 5777 5772 5767
5819 5819 5818 5818 5817 5817 5817 5816 5816 5815 5815 5815 5815 5815 5815 5815 5815 5815 5815 5814 5814 5814 5813 5812 5811 5810 5809 5807 5805 5803 5801 5798 5796 5793 5790 5786 5782 5778 5773 5769 5764 5759 5754
5814 5813 5813 5812 5812 5811 5811 5811 5810 5810 5809 5809 5809 5809 5809 5809 5809 5808 5808 5807 5807 5806 5806 5805 5803 5802 5800 5798 5796 5793 5791 5788 5785 5782 5779 5775 5771 5766 5761 5756 5752 5747 5741
5807 5807 5806 5806 5805 5804 5804 5804 5804 5804 5803 5803 5803 5803 5802 5802 5802 5802 5801 5800 5800 5799 5798 5797 5795 5793 5791 5789 5786 5783 5780 5778 5774 5771 5767 5763 5759 5754 5749 5745 5740 5735 5730
5800 5800 5799 5799 5799 5798 5798 5798 5798 5798 5797 5797 5796 5796 5795 5795 5795 5795 5794 5793 5792 5791 5789 5788 5786 5784 5782 5779 5776 5773 5770 5767 5764 5760 5756 5752 5747 5743 5739 5734 5729 5724 5719
5793 5792 5792 5792 5792 5792 5791 5791 5791 5791 5790 5790 5789 5789 5788 5788 5787 5787 5786 5785 5784 5783 5781 5779 5777 5775 5773 5770 5767 5763 5760 5757 5753 5749 5745 5741 5737 5733 5728 5724 5719 5713 5708
5785 5785 5785 5784 5784 5784 5784 5784 5783 5783 5783 5783 5782 5782 5781 5781 5780 5779 5778 5777 5776 5774 5773 5771 5769 5766 5764 5760 5757 5754 5751 5747 5743 5739 5735 5732 5727 5723 5718 5714 5708 5703 5698
5776 5777 5777 5777 5776 5776 5776 5776 5776 5776 5775 5775 5775 5774 5773 5773 5772 5771 5770 5769 5767 5766 5764 5762 5760 5757 5754 5751 5748 5745 5741 5738 5734 5730 5727 5722 5718 5714 5709 5704 5699 5694 5689
5768 5768 5769 5769 5769 5769 5769 5768 5768 5768 5768 5767 5767 5767 5766 5765 5764 5763 5762 5761 5759 5758 5756 5753 5751 5748 5746 5742 5739 5736 5733 5729 5726 5722 5718 5714 5710 5705 5700 5696 5691 5686 5681
5760 5760 5760 5760 5761 5761 5761 5761 5761 5760 5760 5760 5760 5759 5759 5758 5756 5756 5754 5753 5751 5749 5747 5745 5742 5740 5737 5734 5731 5728 5724 5721 5718 5714 5710 5706 5701 5697 5692 5688 5683 5679 5674
5751 5752 5752 5753 5753 5753 5753 5753 5753 5753 5753 5753 5752 5752 5751 5750 5749 5748 5746 5745 5743 5741 5738 5736 5734 5731 5729 5726 5723 5720 5716 5713 5709 5706 5702 5698 5694 5689 5685 5681 5676 5672 5667
5743 5744 5744 5745 5745 5745 5745 5746 5746 5745 5745 5745 5745 5744 5743 5742 5741 5740 5738 5737 5735 5733 5731 5728 5726 5723 5721 5718 5715 5712 5709 5705 5702 5698 5694 5690 5686 5682 5678 5674 5670 5665 5661
5735 5736 5736 5737 5737 5738 5738 5739 5739 5739 5739 5738 5737 5736 5735 5734 5733 5732 5731 5729 5727 5725 5723 5720 5718 5715 5713 5710 5707 5704 5701 5697 5694 5691 5687 5683 5680 5676 5672 5668 5664 5659 5655
5728 5728 5729 5730 5731 5731 5732 5732 5732 5731 5731 5730 5730 5729 5728 5727 5726 5725 5723 5721 5719 5717 5714 5712 5710 5707 5705 5702 5699 5696 5693 5690 5687 5683 5680 5676 5673 5669 5665 5662 5658 5654 5649
5722 5723 5723 5724 5725 5725 5725 5725 5725 5725 5724 5724 5723 5722 5721 5719 5718 5717 5715 5713 5711 5708 5706 5704 5701 5699 5697 5694 5691 5688 5685 5682 5679 5676 5673 5670 5666 5663 5659 5656 5652 5648 5644
5717 5718 5718 5719 5719 5719 5719 5718 5718 5718 5717 5716 5715 5714 5713 5711 5710 5708 5706 5704 5702 5700 5698 5696 5693 5691 5689 5686 5684 5681 5678 5675 5672 5669 5666 5663 5660 5657 5653 5650 5646 5642 5639
5712 5713 5713 5714 5714 5713 5713 5712 5712 5711 5710 5709 5707 5706 5705 5703 5702 5700 5698 5696 5694 5692 5690 5687 5685 5683 5681 5678 5676 5673 5671 5668 5666 5663 5660 5657 5654 5651 5647 5644 5641 5637 5633
Wind_Speed
8 8 8 9 10 12 13 13 14 15 16 17 18 18 18 19 19 19 20 20 21 21 21 22 22 22 21 21 22 24 25 25 26 26 27 27 27 28 29 29 29 30 31
9 10 9 10 10 11 12 13 14 15 16 17 18 19 19 19 19 19 20 20 21 21 22 23 23 23 23 24 24 25 26 27 27 27 27 28 28 29 31 31 31 32 33
11 11 11 11 11 12 12 14 15 15 16 16 17 19 19 19 19 19 20 20 21 22 22 23 24 24 25 26 26 27 27 28 28 28 28 29 30 31 32 34 34 35 36
13 13 13 13 13 13 14 14 15 16 16 17 18 18 19 20 20 21 22 22 22 23 24 25 25 26 27 27 28 28 28 28 29 30 30 31 32 33 34 35 35 36 37
14 15 14 15 15 15 15 15 15 15 16 16 18 19 20 21 21 22 22 22 23 23 25 26 27 28 29 30 30 30 30 30 31 31 32 33 33 34 34 35 36 37 39
16 16 16 16 16 16 16 17 17 16 17 17 18 19 20 20 21 22 23 24 24 24 26 27 28 29 30 29 29 30 30 31 31 31 32 33 34 36 37 37 38 40 42
18 17 17 16 17 18 18 18 19 19 19 19 19 20 21 21 23 23 23 23 24 25 27 28 28 28 28 29 29 30 30 31 31 32 34 35 37 37 39 40 41 43 44
20 20 19 19 19 19 19 20 20 20 21 21 21 21 22 22 22 23 24 25 26 27 28 28 28 27 27 29 30 30 31 32 33 34 35 36 38 39 40 42 44 45 46
22 22 22 21 21 20 20 20 21 21 22 22 22 22 22 23 24 24 26 26 27 27 27 28 28 28 29 29 31 31 32 33 34 35 36 37 39 40 42 43 45 46 47
24 23 23 22 22 21 21 21 21 22 23 23 23 23 23 24 24 26 26 26 27 27 28 28 29 30 30 30 31 32 34 35 35 36 38 39 40 41 43 44 45 46 47
24 24 24 23 23 23 23 22 22 22 22 22 22 23 24 24 25 26 26 26 27 27 28 28 29 30 31 32 33 34 35 36 37 38 39 40 41 42 43 43 44 45 45
26 26 26 25 24 24 23 22 22 22 22 23 23 24 24 25 25 26 26 26 26 27 28 29 30 31 32 33 34 35 36 37 37 38 39 40 41 41 42 42 42 43 44
27 27 27 26 25 24 24 24 24 24 24 24 24 25 25 25 25 26 26 26 27 27 28 29 30 31 32 34 34 35 36 37 37 38 39 39 40 40 40 40 41 42 43
29 28 27 26 26 26 26 26 25 25 25 25 25 26 26 26 27 27 27 26 27 28 30 31 31 32 33 34 35 35 35 36 37 38 39 39 39 38 38 39 40 41 42
30 29 28 27 27 27 27 27 27 26 26 26 26 27 27 27 27 27 27 28 29 30 30 30 32 32 33 33 33 33 34 35 36 37 37 36 37 38 38 39 39 40 40
31 30 29 29 28 28 28 28 27 27 26 27 27 27 27 27 27 26 27 28 29 30 30 30 30 31 31 31 31 32 34 35 35 35 35 35 35 36 37 37 37 38 37
31 30 29 28 28 28 28 28 27 27 28 27 27 27 27 28 28 28 28 28 28 28 29 29 30 30 30 30 31 32 33 33 33 32 32 33 34 34 35 35 35 35 35
31 30 29 29 28 28 28 28 28 27 27 27 26 26 27 28 28 28 28 28 28 29 29 30 30 30 30 31 31 31 31 31 31 31 31 32 32 33 33 33 33 33 33
30 29 28 28 28 28 28 28 28 27 26 26 26 27 27 26 26 27 28 28 29 29 30 30 29 29 29 29 29 29 29 29 30 30 30 31 31 31 31 31 32 32 32
29 28 27 27 27 27 27 27 26 26 26 26 26 26 26 26 26 27 28 28 28 28 28 28 28 27 27 28 28 29 29 29 29 29 30 30 30 30 30 30 30 30 30
27 27 26 26 26 26 25 25 25 24 25 25 25 25 26 27 27 27 27 27 26 26 27 27 27 27 28 28 28 28 28 28 28 29 29 29 29 29 30 29 29 29 28
25 25 25 25 24 24 23 23 24 24 24 24 24 25 26 26 25 25 25 26 26 27 27 28 28 28 27 27 27 28 28 27 28 28 28 28 29 29 29 28 28 27 27
23 22 21 21 21 21 22 22 22 23 23 24 24 25 25 25 25 25 26 27 27 28 28 28 28 27 27 27 27 27 27 27 27 27 27 28 28 28 27 27 26 26 26
18 17 17 17 18 19 21 21 22 22 24 24 24 25 25 25 25 26 27 27 28 28 28 27 27 27 27 26 27 27 27 27 27 27 27 27 27 26 26 26 26 26 27
16 16 16 17 18 18 19 20 21 22 22 23 23 24 24 25 26 27 28 28 28 28 27 27 26 26 27 27 27 27 27 26 26 26 26 26 26 26 26 25 26 26 27
14 15 16 17 18 18 19 20 21 21 21 22 22 23 25 26 27 28 28 28 28 27 26 26 26 26 27 27 27 27 26 26 26 26 26 26 25 25 25 25 26 26 27
Wind_Direction
289 279 272 270 267 258 256 253 253 254 254 251 250 252 255 255 253 253 252 252 255 258 262 263 265 266 269 271 274 276 277 278 280 282 284 285 286 287 287 286 285 286 287
291 288 280 281 276 265 261 261 260 260 256 254 253 253 254 256 255 254 255 255 256 259 262 264 265 265 269 271 274 276 279 280 280 282 284 284 286 287 287 287 287 289 289
292 289 283 281 278 273 269 266 267 267 261 257 256 255 255 257 257 255 257 257 258 261 263 264 266 268 271 274 276 279 280 281 282 283 284 285 287 287 288 289 291 291 291
289 287 282 279 278 276 273 270 270 270 266 261 258 256 257 259 260 260 261 262 261 263 264 265 268 271 272 276 278 279 280 281 282 284 285 286 287 288 289 290 292 292 292
291 288 284 280 278 278 278 275 274 273 272 267 262 260 261 262 263 264 266 265 264 266 268 268 270 272 274 277 278 279 279 280 282 284 286 287 288 289 290 292 293 293 292
288 287 286 281 279 278 279 277 275 275 273 270 269 264 262 263 264 265 268 268 268 271 272 272 274 276 278 279 279 280 282 283 285 287 289 289 290 291 291 292 293 293 294
287 287 286 286 281 279 277 277 276 276 275 271 270 266 265 265 266 268 271 270 272 275 276 276 277 279 279 279 279 281 284 286 287 289 290 290 291 292 293 294 295 295 295
285 285 285 286 287 285 282 280 279 278 276 274 271 270 268 266 268 270 271 273 275 276 278 278 279 280 282 282 283 284 285 287 288 290 291 291 292 293 294 295 296 296 296
285 284 284 284 284 285 283 282 281 278 276 277 275 272 272 270 271 273 275 276 277 277 278 279 279 279 282 284 286 286 287 288 290 292 294 294 295 296 296 296 296 296 296
283 283 284 283 282 282 282 281 280 277 276 278 278 277 276 276 276 276 277 275 277 278 279 280 282 282 285 288 289 287 288 291 294 295 296 296 296 296 297 297 297 297 298
283 282 283 282 280 281 281 281 281 280 280 280 280 278 278 280 280 279 279 278 278 280 282 283 285 287 289 290 290 290 291 293 294 294 295 296 297 298 297 298 298 299 300
282 282 283 282 280 280 281 280 281 281 282 281 280 278 278 279 278 278 280 280 282 284 286 287 289 291 292 292 291 292 294 295 295 296 296 297 298 298 299 300 301 302 302
281 281 281 279 280 279 279 280 281 282 281 279 279 277 278 279 279 279 279 280 283 285 288 290 290 290 292 293 294 295 296 296 296 297 298 298 299 300 301 302 303 304 305
279 279 279 279 279 278 278 279 279 281 280 278 279 279 277 277 280 280 280 281 284 286 288 293 294 293 295 297 298 297 297 297 299 300 299 300 301 302 303 304 304 305 306
277 278 277 276 276 276 276 277 278 279 280 278 278 279 278 279 281 281 281 283 286 289 291 293 295 296 298 298 298 298 299 299 300 300 301 302 302 303 304 305 306 307 308
275 274 273 274 275 274 275 275 275 276 278 279 278 279 278 280 281 282 283 286 288 290 291 293 295 295 297 299 300 301 301 301 301 301 301 302 304 306 306 307 309 310 312
273 273 272 272 273 274 274 272 273 275 276 277 279 281 280 280 282 284 287 289 290 291 293 295 295 295 297 300 301 302 302 303 303 304 306 307 308 309 309 310 312 313 314
271 271 271 271 271 271 271 272 273 272 273 275 278 280 281 282 283 286 288 289 290 292 294 295 295 296 298 300 301 302 303 304 306 307 308 309 310 311 312 313 314 315 316
269 270 269 268 269 269 270 271 271 271 272 274 278 280 282 284 285 286 287 288 290 291 293 296 297 297 299 301 303 304 305 305 306 307 308 310 311 312 314 315 315 316 318
268 267 267 266 267 269 269 268 269 270 272 275 278 281 283 285 286 286 286 288 290 292 294 297 297 298 300 302 303 303 304 305 306 308 309 311 312 313 314 316 317 318 319
266 266 265 265 265 266 267 268 269 271 274 276 279 282 283 283 285 285 286 289 292 294 295 296 296 297 298 300 302 303 304 305 307 309 310 311 313 314 315 316 318 320 321
264 264 263 262 264 265 266 268 270 272 275 279 281 283 284 283 284 286 288 291 294 295 294 294 295 295 297 300 302 303 305 305 307 308 310 312 314 315 316 317 319 320 322
263 261 260 259 259 261 264 268 271 275 278 279 280 283 284 284 285 288 290 291 291 292 292 293 295 297 299 300 301 302 304 305 306 307 310 312 313 314 315 317 319 321 322
257 256 256 258 261 264 266 269 273 277 278 278 280 283 285 287 289 289 288 289 290 290 292 293 295 297 299 300 301 302 303 304 305 307 309 311 313 314 315 316 318 320 322
255 256 258 263 267 268 269 272 276 279 281 281 282 284 285 287 288 289 288 289 290 292 293 293 295 296 297 299 300 301 302 303 305 307 308 310 311 313 314 316 318 320 321
254 258 262 266 268 270 274 277 280 282 283 285 287 289 288 288 289 289 289 290 291 291 292 293 294 295 296 297 298 299 300 301 303 305 306 307 309 311 312 314 315 317 319